Farmingdale, NY

1:51 AM EST on December 11, 2016 (GMT -0500)
Republic

Weather History for KFRG - March, 2013

Change the Weather History Date:

Wednesday, March 13, 2013

  Actual Average Record
Temperature  
Mean Temperature 42 °F -  
Max Temperature 51 °F 43 °F 61 °F (2016)
Min Temperature 35 °F 29 °F 18 °F (2014)
Degree Days  
Heating Degree Days 22    
Moisture  
Dew Point 29 °F    
Average Humidity 59    
Maximum Humidity 92    
Minimum Humidity 32    
Precipitation  
Precipitation 0.00 in - - ()
Sea Level Pressure  
Sea Level Pressure 29.84 in    
Wind  
Wind Speed 7 mph (NW)    
Max Wind Speed 17 mph    
Max Gust Speed 24 mph    
Visibility 10 miles    
Events      
Averages and records for this station are not official NWS values.
T = Trace of Precipitation, MM = Missing Value Source: NWS Daily Summary

Daily Weather History Graph

Daily Weather History Graph

Search for Another Location

Airport or City:

Trip Planner

Search our weather history database for the weather conditions in past years. The results will help you decide how hot, cold, wet, or windy it might be!

Date:

Astronomy

Mar. 13, 2013 Rise Set
Actual Time 7:08 AM EDT 6:58 PM EDT
Civil Twilight 6:40 AM EDT 7:25 PM EDT
Nautical Twilight 6:09 AM EDT 7:57 PM EDT
Astronomical Twilight 5:37 AM EDT 8:29 PM EDT
Moon 7:45 AM EDT (3/13) 9:13 PM EDT (3/13)
Length of Visible Light 12h 44m
Length of Day
11h 50m
Waxing Crescent, 4% of the Moon is Illuminated
Mar 13
Waxing Crescent
Mar 19
First Quarter
Mar 27
Full
Apr 3
Last Quarter
Apr 10
New

Hourly Weather History & Observations

Time (EDT) Temp. Windchill Dew Point Humidity Pressure Visibility Wind Dir Wind Speed Gust Speed Precip Events Conditions
12:53 AM 43.0 °F 38.8 °F 36.0 °F 76% 29.81 in 10.0 mi NW 6.9 mph - N/A   Scattered Clouds
1:53 AM 43.0 °F 39.5 °F 36.0 °F 76% 29.84 in 10.0 mi NNW 5.8 mph - N/A   Mostly Cloudy
2:14 AM 42.8 °F 38.0 °F 35.6 °F 76% 29.84 in 10.0 mi NNW 8.1 mph - N/A   Scattered Clouds
3:53 AM 39.9 °F 36.7 °F 34.0 °F 79% 29.85 in 10.0 mi NNW 4.6 mph - N/A   Clear
4:53 AM 39.0 °F 36.8 °F 33.1 °F 79% 29.86 in 10.0 mi North 3.5 mph - N/A   Clear
5:53 AM 36.0 °F 33.3 °F 33.1 °F 89% 29.87 in 10.0 mi WNW 3.5 mph - N/A   Clear
6:53 AM 35.1 °F - 33.1 °F 92% 29.87 in 10.0 mi Calm Calm - N/A   Clear
7:53 AM 37.0 °F 32.4 °F 33.1 °F 86% 29.88 in 10.0 mi NNW 5.8 mph - N/A   Clear
8:53 AM 39.9 °F 36.7 °F 33.1 °F 77% 29.88 in 10.0 mi WNW 4.6 mph - N/A   Clear
9:53 AM 44.1 °F 39.5 °F 30.0 °F 58% 29.88 in 10.0 mi NNW 8.1 mph - N/A   Clear
10:53 AM 45.0 °F 40.6 °F 28.0 °F 52% 29.87 in 10.0 mi NW 8.1 mph 18.4 mph N/A   Partly Cloudy
11:53 AM 46.9 °F - 27.0 °F 46% 29.86 in 10.0 mi NNW 10.4 mph 17.3 mph N/A   Clear
12:53 PM 48.9 °F - 27.0 °F 43% 29.84 in 10.0 mi WNW 8.1 mph 16.1 mph N/A   Scattered Clouds
1:53 PM 48.0 °F - 26.1 °F 42% 29.82 in 10.0 mi WNW 9.2 mph 20.7 mph N/A   Partly Cloudy
2:53 PM 50.0 °F - 26.1 °F 39% 29.80 in 10.0 mi WNW 10.4 mph - N/A   Partly Cloudy
3:53 PM 48.9 °F - 23.0 °F 36% 29.78 in 10.0 mi NNW 11.5 mph 18.4 mph N/A   Overcast
4:53 PM 48.9 °F - 21.0 °F 33% 29.79 in 10.0 mi WNW 11.5 mph 19.6 mph N/A   Overcast
5:53 PM 48.9 °F - 19.9 °F 32% 29.79 in 10.0 mi West 17.3 mph - N/A   Overcast
6:53 PM 46.9 °F - 19.9 °F 34% 29.81 in 10.0 mi West 13.8 mph 24.2 mph N/A   Overcast
7:53 PM 44.1 °F 38.1 °F 26.1 °F 49% 29.84 in 10.0 mi WSW 11.5 mph - N/A   Mostly Cloudy
8:53 PM 43.0 °F 37.2 °F 24.1 °F 47% 29.85 in 10.0 mi WNW 10.4 mph - N/A   Scattered Clouds
9:53 PM 42.1 °F 37.7 °F 27.0 °F 55% 29.86 in 10.0 mi NW 6.9 mph - N/A   Overcast
10:53 PM 39.9 °F 35.8 °F 28.0 °F 63% 29.87 in 10.0 mi NW 5.8 mph - N/A   Mostly Cloudy
11:53 PM 39.9 °F 35.8 °F 28.0 °F 63% 29.87 in 10.0 mi NW 5.8 mph - N/A   Overcast